Location: Cabeza de los Veneras
(40.2000°N, 5.2000°W)
Time: 11:01:29
(UTC+00:00)

Daily predictions for brighter satellites

Satellite Brightness Start Highest point End
(mag) Time Altitude Azimuth Time Altitude Azimuth Time Altitude Azimuth
H-2A ROCKET BODY 4.4 19:14:37 10° SW 19:18:49 24° S 19:29:28 10° SE
ADEOS 3.9 19:23:30 10° S 19:28:42 73° WSW 19:33:56 10° NNW
Okean O Rocket 2.9 19:25:47 10° ESE 19:29:10 22° ENE 19:32:34 10° NNE
USA 267 3.6 19:23:50 10° NE 19:30:23 72° NW 19:36:52 10° WSW
Cosmos 1782 Rocket 3.5 19:27:42 10° S 19:32:03 76° E 19:36:28 10° N
Atlas Centaur 2 3.6 19:29:31 10° SSW 19:33:27 19° SSE 19:36:53 10° ESE
CZ-4 R/B 1.4 19:30:10 10° SSE 19:34:01 56° ENE 19:37:49 10° N
CZ-4B R/B 3.1 19:39:36 10° S 19:43:15 64° WSW 19:46:48 10° NNW
Resurs 01 Rocket 2.4 19:39:51 10° SE 19:43:47 33° ENE 19:47:45 10° N
SJ 16-02 1.7 19:40:21 10° NNW 19:44:39 68° WSW 19:48:55 10° S
NOSS 3-1 (A) 2.9 19:43:40 10° SSW 19:48:20 60° ESE 19:53:46 10° NE
DELTA 2 DEB (DPAF) 4.2 19:44:38 10° NNE 19:48:45 49° E 19:52:51 10° S
Cosmos 1300 Rocket 3.6 19:46:06 10° S 19:50:28 85° W 19:54:53 10° N
Tiangong -1.6 19:52:10 10° SW 19:55:04 39° SSE 19:57:18 15° E
USA 229 DEB 4.3 19:52:31 10° SSE 19:57:20 26° ESE 20:02:28 10° NE
USA 229 4.3 19:52:38 10° SSE 19:57:27 26° ESE 20:02:33 10° ENE
Milstar 3 4.4 19:51:26 10° SW 19:59:39 42° SSE 20:13:03 12° E
Cosmos 2151 Rocket 4.4 19:56:22 10° SSE 20:00:09 29° E 20:03:59 10° NNE
USA 234 3.5 19:58:35 13° ESE 20:04:18 59° NE 20:10:43 10° NW
USA 281 3.8 19:59:01 13° ESE 20:04:18 40° ENE 20:10:21 10° N
NOSS 3-1 (C) 4.4 20:04:17 10° WSW 20:08:54 43° NW 20:14:22 10° NNE
Cosmos 2227 Rocket 4.3 20:07:51 10° NNE 20:09:25 11° NE 20:10:59 10° ENE
CSL-04 Debris 4.1 20:04:58 10° SSE 20:10:22 75° ENE 20:15:50 10° N
SJ-6B 4.2 20:09:45 10° SSW 20:13:28 39° W 20:17:13 10° NNW
SL-4 R/B 4.3 20:12:42 10° NNW 20:14:37 14° N 20:16:28 10° NE
Cosmos 1697 Rocket 4.4 20:18:57 14° E 20:18:57 14° E 20:20:41 10° ENE
CSL-04 Rocket 3.7 20:13:19 10° SSE 20:18:49 81° ENE 20:24:18 10° NNW
Cosmos 371 Rocket 4.0 20:14:28 10° N 20:18:53 36° ENE 20:21:07 23° ESE
ATLAS 3B R/B 3.1 20:14:54 10° SW 20:21:53 75° NW 20:29:26 10° NNE
Okean 2 Rocket 3.3 20:17:47 10° SSE 20:22:06 48° E 20:26:27 10° NNE
COSMOS 2455 4.4 20:20:24 10° N 20:25:01 22° NE 20:27:59 16° E
SPOT 5 3.9 20:26:04 24° ESE 20:28:18 33° ENE 20:32:58 10° N
BlueWalker 3 2.4 20:31:33 10° WSW 20:35:18 59° NW 20:39:06 10° NE
CZ-4C R/B 4.3 20:32:04 10° NNW 20:37:50 26° NE 20:42:37 16° E
Cosmos 2297 Rocket 3.2 20:33:41 10° N 20:38:40 31° ENE 20:40:35 25° E
PSLV R/B 4.4 20:37:05 15° S 20:40:01 51° W 20:43:41 10° NNW
Cosmos 1656 3.6 20:34:54 10° S 20:40:24 63° ESE 20:45:52 10° NNE
Terra 3.2 20:40:08 21° ENE 20:40:38 21° ENE 20:44:10 10° NNE
Cosmos 1503 Rocket 4.1 20:35:46 10° NNW 20:41:07 65° ENE 20:43:37 31° SE
CARTOSAT-1 4.0 20:39:30 15° S 20:42:55 60° W 20:47:09 10° NNW
Cosmos 1354 Rocket 4.3 20:38:50 10° N 20:44:03 52° ENE 20:45:57 35° ESE
Okean 1 Rocket 3.2 20:44:00 36° SSE 20:45:26 53° E 20:49:48 10° NNE
Sich 1 Rocket 3.5 20:41:30 11° S 20:45:46 89° WNW 20:50:13 10° N
ATLAS 5 CENTAUR R/B 4.2 20:44:08 10° WNW 20:46:11 15° NW 20:48:21 10° N
Iridium 4 Rocket 3.9 20:44:01 30° SE 20:46:29 51° E 20:52:03 10° NNE
Okean-O 2.5 20:48:37 35° SSE 20:50:26 85° ENE 20:54:52 10° NNW
Cosmos 1241 Rocket 4.5 20:44:40 10° NNW 20:50:59 85° WSW 20:54:23 30° SSE
Ariane Rocket 3.9 20:56:30 29° ENE 20:56:57 29° ENE 21:01:16 10° N
Cosmos 1763 Rocket 3.8 20:57:45 41° E 20:57:45 41° E 21:02:22 10° NNE
CZ-4C R/B 3.5 20:54:58 10° N 20:58:18 57° WNW 20:59:55 27° SW
Genesis I 3.4 20:57:23 10° NNW 21:00:43 51° NE 21:00:43 51° NE
Cosmos 44 3.4 20:56:46 10° SSW 21:02:10 81° ESE 21:07:33 10° NNE
Cosmos 1932 4.4 20:57:11 10° NNW 21:03:26 84° WSW 21:05:57 38° SSE
Cosmos 2263 Rocket 4.4 21:03:06 10° NNE 21:04:44 11° NE 21:06:06 10° ENE
Okean O Rocket 3.2 21:01:42 12° SSW 21:05:14 31° W 21:09:10 10° NNW
Cosmos 540 Rocket 4.2 21:18:45 35° ENE 21:18:45 35° ENE 21:22:08 10° NNE
Cosmos 1605 Rocket 4.0 21:11:18 10° N 21:17:38 65° E 21:19:09 50° SE
Resurs 01 Rocket 3.8 21:16:53 10° SW 21:20:16 22° W 21:23:40 10° NW
Atlas Centaur 2 3.5 21:17:25 10° SW 21:19:37 19° SSW 21:19:37 19° SSW
Cosmos 1536 Rocket 4.5 21:17:14 10° NNW 21:21:28 45° W 21:22:56 33° SW
IRS-P2 Rocket 4.4 21:24:02 67° SE 21:24:44 79° ENE 21:30:02 10° NNW
IRS-1C Rocket 4.1 21:23:37 52° S 21:24:55 77° WSW 21:30:13 10° NNW
Celestis-02/Orion 38 4.4 21:29:56 71° S 21:30:27 83° WSW 21:35:34 10° NNW
ERS-1 Rocket 2.8 21:31:22 80° E 21:31:30 81° ENE 21:36:31 10° N
Tiangong 0.5 21:28:32 10° W 21:29:20 17° W 21:29:20 17° W
SPOT 3 Rocket 3.7 21:35:46 60° ENE 21:35:46 60° ENE 21:40:39 10° N
CENTAUR R/B 4.2 21:33:58 10° NNW 21:41:27 36° NE 21:44:48 28° E
ATLAS CENTAUR R/B 3.5 21:43:28 10° N 21:45:04 18° NNE 21:45:04 18° NNE
USA 234 4.0 21:45:56 36° SSW 21:47:26 40° SW 21:53:31 10° WNW
USA 229 DEB 4.1 21:41:46 10° SW 21:47:42 54° NW 21:54:14 10° NNE
USA 229 4.1 21:41:50 10° SW 21:47:48 55° NW 21:54:20 10° NNE
USA 281 4.2 21:45:54 27° SSW 21:48:44 39° WSW 21:54:50 10° NW
Cosmos 1727 Rocket 3.9 21:49:08 69° E 21:49:08 69° E 21:55:16 10° NNE
Cosmos 1980 Rocket 3.7 21:55:14 23° NE 21:55:14 23° NE 21:57:29 10° NE
SL-4 R/B 4.2 21:51:18 10° NW 21:52:47 19° NNW 21:52:47 19° NNW
Cosmos 2227 Rocket 2.3 21:48:56 10° NNW 21:54:10 63° NE 21:54:10 63° NE
Cosmos 2100 Rocket 4.5 21:48:45 10° N 21:54:16 45° ENE 21:54:16 45° ENE
Cosmos 1697 Rocket 2.8 22:00:33 70° W 22:00:53 72° WNW 22:06:35 10° NNE
SPOT 5 4.4 22:05:13 29° WSW 22:06:13 31° W 22:10:53 10° NW
COSMOS 2455 3.0 22:05:29 10° NNW 22:11:08 69° W 22:11:08 69° W
Spot 2 Rocket 4.3 22:16:33 46° WNW 22:16:33 46° WNW 22:20:44 10° NNW
Cosmos 1898 Rocket 4.4 22:12:37 10° NNW 22:16:18 44° N 22:16:18 44° N
Terra 3.1 22:18:50 36° WNW 22:18:50 36° WNW 22:22:23 10° NNW
Cosmos 2297 Rocket 3.2 22:17:34 10° NW 22:22:24 37° W 22:22:24 37° W
CZ-4C R/B 2.9 22:19:42 10° NNW 22:27:13 87° ENE 22:27:43 81° SE
Cosmos 1459 Rocket 4.3 22:31:45 10° N 22:36:35 59° N 22:36:35 59° N
Cosmos 2219 4.0 22:32:25 10° NNW 22:36:27 48° NNW 22:36:27 48° NNW
Cosmos 2263 Rocket 3.3 22:44:09 10° NNW 22:47:47 40° N 22:47:47 40° N
NOSS 3-2 (A) 4.2 23:00:01 10° NNW 23:07:20 67° NE 23:07:20 67° NE
SL-16 R/B 4.3 23:22:57 19° NE 23:22:57 19° NE 23:24:32 10° NNE
CENTAUR R/B 3.4 23:24:20 10° NW 23:31:56 67° W 23:31:56 67° W
Cosmos 1844 Rocket 4.5 23:29:10 10° N 23:32:09 25° NNE 23:32:09 25° NNE
Cosmos 1980 Rocket 4.0 23:36:55 26° NW 23:36:55 26° NW 23:41:03 10° N
